Regional Weather Roundup
Issued by NWS

Home | Current Version | Previous Version | Text Only | Print | Product List | Glossary On
Versions: 1 2 3 4 5 6 7 8 9 10 11 12 13 14 15 16 17 18 19 20 21 22 23 24 25 26 27 28 29 30 31 32 33 34 35 36 37 38 39 40 41 42 43 44 45 46 47 48 49 50
000
ASCA42 TJSJ 191310
RWRPR
PUERTO RICO/U.S. VIRGIN ISLANDS HOURLY WEATHER ROUNDUP
NATIONAL WEATHER SERVICE SAN JUAN PR
900 AM AST SUN APR 19 2015

PRZ001-004-191400-
PUERTO RICO

CITY           SKY/WX    TMP DP  RH WIND       PRES   REMARKS
SAN JUAN LMM   MOSUNNY   82  73  74 E6        30.04R
CEIBA          MOSUNNY   82  73  74 E13       30.07R
$$

PRZ006-007-191400-
U.S. VIRGIN ISLANDS

CITY           SKY/WX    TMP DP  RH WIND       PRES   REMARKS
$$

HOURLY WEATHER ROUNDUP FOR THE NEWS MEDIA

CITY           SKY/WX    TMP DP  RH WIND       PRES   REMARKS
ORLANDO        CLOUDY    77  72  84 SE5       29.95F
NEW YORK       PTSUNNY   56  35  45 SE9       30.26R
NEWARK         PTSUNNY   56  29  35 NE8       30.25R
CHICAGO        PTSUNNY   54  33  45 E8        29.84F
BOSTON         SUNNY     48  34  58 NE8       30.26S
DALLAS         PTSUNNY   60  56  86 SE13      29.73S
PHILADELPHIA   CLOUDY    57  39  51 E13       30.23R
LOS ANGELES    PTCLDY    56  54  93 CALM      29.96R
WASHINGTON DC  CLOUDY    61  32  33 E12       30.15R


USA.gov is the U.S. government's official web portal to all federal, state and local government web resources and services.